[[{"header":{"parameterUnit":"m.s-1","parameterCategory":1,"la1":30.2991,"la2":30.254,"lo1":-89.0895,"lo2":-89.0444,"dy":0.0017,"dx":0.0017,"nx":28,"ny":28,"refTime":"2025-06-18T03:00:00:Z","depth":0,"parameterNumber":2,"parameterNumberName":"U-component_of_WINDS"},"data":[0,0,0,0,0,0,0,0,0,0,0,0,0,0,0,0,0,0,0,0,0,0,0,0,0,0,0,0,0,0,0,0,0,0,0,0,0,0,0,0,0,0,0,0,0,0,0,0,0,0,0,0,0,0,0,0,0,0,0.4537,0.4537,0,0.4538,0.4538,0.4538,0.4533,0.4532,0.4532,0.4532,0.4532,0.4532,0.4532,0,0,0,0,0,0,0,0,0,0,0,0,0,0.4527,0.4527,0.4537,0.4537,0.4537,0.4538,0.4538,0.4538,0.4533,0.4532,0.4532,0.4532,0.4532,0.4532,0.4532,0,0,0,0,0,0,0,0,0,0,0,0,0,0.453,0.4527,0.4537,0.4534,0.4534,0.4538,0.4538,0.4538,0.4533,0.4532,0.4532,0.4532,0.4532,0.4532,0.4532,0.4538,0,0,0.4533,0.4533,0,0,0,0,0,0,0,0,0.453,0.453,0.4535,0.4535,0.4534,0.4535,0.4535,0.4538,0.4533,0.4533,0.4532,0.4532,0.4533,0.4533,0.4534,0.4538,0.4538,0.4533,0.4533,0.4533,0.4533,0,0,0,0,0,0,0,0.4529,0.453,0.4538,0.4535,0.4535,0.4532,0.4532,0.4535,0.4534,0.4533,0.4533,0.4533,0.4533,0.4534,0.4534,0.4538,0.4533,0.4533,0.4533,0.4533,0.4545,0.4546,0,0,0,0,0,0,0.453,0.453,0.4538,0.4538,0.4531,0.4533,0.4533,0.4535,0.4534,0.4534,0.4533,0.4533,0.4533,0.4533,0.4534,0.454,0.4533,0.4533,0.4533,0.4545,0.4545,0.4546,0,0,0,0,0,0,0.453,0.4531,0.4537,0.4534,0.4534,0.4533,0.4536,0.4535,0.4536,0.4534,0.4534,0.4535,0.4533,0.4533,0.4537,0.4539,0.4533,0.4533,0.4545,0.4545,0.4546,0.4552,0,0,0,0,0,0,0.4529,0.4531,0.4534,0.4534,0.4535,0.4542,0.4536,0.4535,0.4537,0.4536,0.4535,0.4535,0.4533,0.4536,0.4537,0.454,0.4534,0.4545,0.4545,0.4545,0.4552,0.4553,0.4554,0,0,0,0,0,0.4529,0.4536,0.4534,0.4535,0.4539,0.4542,0.4542,0.454,0.4537,0.454,0.4538,0.4535,0.4539,0.4537,0.4537,0.454,0.4545,0.4545,0.4545,0.4551,0.4552,0.4553,0,0,0,0,0,0,0.4536,0.4536,0.4534,0.4541,0.4541,0.4541,0.4544,0.4542,0.4543,0.4542,0.4539,0.4539,0.4542,0.4541,0.4539,0.4545,0.4541,0.4542,0.4545,0.4546,0.4547,0.4547,0.4534,0,0,0,0,0,0.4538,0.4542,0.4541,0.4547,0.4548,0.4546,0.4547,0.4545,0.4545,0.4545,0.4544,0.4544,0.4545,0.4546,0.4547,0.4551,0.455,0.4553,0.4554,0.4555,0.4555,0.4556,0.4557,0.4547,0.4547,0.4547,0,0,0.4543,0.4544,0.4546,0.4549,0.4549,0.4551,0.4546,0.4549,0.455,0.4546,0.4549,0.4548,0.4547,0.4551,0.4552,0.455,0.4558,0.4556,0.4556,0.4556,0.4557,0.4558,0.4559,0.4547,0.4547,0.4547,0,0,0.4553,0.4555,0.4559,0.4559,0.4559,0.4558,0.4559,0.4558,0.4557,0.456,0.4556,0.4557,0.4559,0.4558,0.4558,0.4566,0.4562,0.4566,0.4571,0.4571,0.4572,0.4573,0.4574,0.4575,0.4567,0.4567,0.4567,0,0.4559,0.4564,0.4561,0.4564,0.4565,0.4561,0.4564,0.4564,0.4565,0.4564,0.4562,0.4564,0.4563,0.4566,0.4567,0.4568,0.4568,0.4566,0.4572,0.4573,0.4574,0.4575,0.4576,0.4567,0.4567,0.4567,0.4567,0,0.457,0.4573,0.4576,0.4576,0.4577,0.4581,0.4578,0.4579,0.4576,0.4575,0.4577,0.4575,0.4575,0.4576,0.4574,0.4577,0.4576,0.4573,0.4569,0.4575,0.4576,0.4577,0.4567,0.4567,0.4567,0.4567,0,0,0.4585,0.4583,0.4585,0.4584,0.4583,0.4585,0.4587,0.4587,0.4587,0.4587,0.4588,0.4589,0.4586,0.4585,0.4583,0.4584,0.4588,0.4581,0.458,0.4581,0.459,0.4592,0.4593,0.4586,0.4586,0.4586,0.459,0,0.4594,0.4599,0.4596,0.46,0.4602,0.4597,0.4598,0.4597,0.4595,0.4596,0.4593,0.4593,0.459,0.459,0.459,0.4587,0.459,0.4587,0.4585,0.4585,0.4585,0.4594,0.4596,0.46,0.4591,0.4591,0.4591,0,0.4605,0.4605,0.461,0.4607,0.4608,0.4609,0.4608,0.4609,0.4607,0.4605,0.4604,0.4601,0.4601,0.4597,0.4597,0.4596,0.4595,0.4593,0.4593,0.4592,0.4588,0.4593,0.4602,0.4602,0.4592,0.4592,0.4592,0,0.4614,0.4616,0.4618,0.4618,0.4615,0.4616,0.4615,0.4613,0.4612,0.4611,0.461,0.4609,0.4608,0.4606,0.4602,0.46,0.4602,0.4598,0.46,0.46,0.4601,0.46,0.4609,0.4601,0.4601,0.4601,0.4601,0,0.4624,0.4627,0.4622,0.4623,0.4626,0.4622,0.4624,0.4622,0.462,0.462,0.4615,0.4615,0.461,0.4609,0.4606,0.4605,0.4605,0.4603,0.4602,0.4603,0.4603,0.4602,0.4602,0.4601,0.4601,0.4601,0.4601,0,0.4635,0.4632,0.4634,0.4631,0.463,0.4631,0.4628,0.4629,0.4626,0.4626,0.4626,0.4621,0.462,0.4615,0.4613,0.461,0.4611,0.4609,0.4612,0.4611,0.4612,0.4612,0.462,0.462,0.4613,0.4613,0.4613,0,0.4641,0.4643,0.4639,0.4639,0.4638,0.4638,0.4637,0.4633,0.4633,0.4629,0.463,0.4628,0.4626,0.4624,0.462,0.4617,0.4615,0.4618,0.4615,0.4616,0.4614,0.4614,0.4614,0.4619,0.4619,0.4619,0.4619,0,0.4652,0.465,0.4649,0.4648,0.4647,0.4646,0.4644,0.4644,0.4639,0.4638,0.4637,0.4636,0.4632,0.463,0.4627,0.4624,0.4621,0.462,0.462,0.4621,0.4622,0.4621,0.4613,0.462,0.462,0.462,0.462,0.462,0.4659,0.466,0.4658,0.4657,0.4655,0.4653,0.4653,0.465,0.4649,0.4646,0.4644,0.4642,0.4638,0.4634,0.4631,0.4629,0.4627,0.4628,0.4628,0.4628,0.4628,0.4623,0.4629,0.4629,0.4629,0.4629,0.4629,0,0.4669,0.4667,0.4666,0.4664,0.4663,0.4659,0.4657,0.4656,0.4655,0.4652,0.465,0.4648,0.4645,0.464,0.4637,0.4636,0.4634,0.4636,0.4635,0.4635,0.463,0.463,0.4637,0.4637,0.4637,0.4637,0.4637,0.4637,0.4674,0.4674,0.4672,0.4671,0.4669,0.4667,0.4666,0.4664,0.4662,0.4659,0.4657,0.4654,0.465,0.4646,0.4643,0.4642,0.4641,0.4642,0.464,0.4636,0.4635,0.4634,0.4634,0.4642,0.4642,0.4645,0.4645,0.4645]},{"header":{"parameterUnit":"m.s-1","parameterCategory":1,"la1":30.2991,"la2":30.254,"lo1":-89.0895,"lo2":-89.0444,"dy":0.0017,"dx":0.0017,"nx":28,"ny":28,"refTime":"2025-06-18T03:00:00:Z","depth":0,"parameterNumber":3,"parameterNumberName":"V-component_of_WINDS"},"data":[0,0,0,0,0,0,0,0,0,0,0,0,0,0,0,0,0,0,0,0,0,0,0,0,0,0,0,0,0,0,0,0,0,0,0,0,0,0,0,0,0,0,0,0,0,0,0,0,0,0,0,0,0,0,0,0,0,0,5.331,5.3311,0,5.3403,5.3404,5.3405,5.3342,5.3339,5.3336,5.3334,5.3424,5.3429,5.3434,0,0,0,0,0,0,0,0,0,0,0,0,0,5.3071,5.3076,5.331,5.3311,5.3312,5.3403,5.3404,5.3405,5.3343,5.3339,5.3336,5.3332,5.3422,5.3428,5.3434,0,0,0,0,0,0,0,0,0,0,0,0,0,5.3171,5.3078,5.331,5.3292,5.3292,5.3403,5.3404,5.3406,5.3343,5.3339,5.3335,5.3331,5.342,5.3427,5.3435,5.3567,0,0,5.3458,5.3461,0,0,0,0,0,0,0,0,5.3165,5.3179,5.3294,5.3294,5.3293,5.3357,5.3353,5.346,5.3344,5.3324,5.3334,5.3329,5.3405,5.3413,5.344,5.3571,5.3575,5.3459,5.3463,5.3467,5.3469,0,0,0,0,0,0,0,5.3158,5.3175,5.3347,5.3295,5.3295,5.3277,5.3287,5.3373,5.3387,5.3325,5.3321,5.3333,5.3404,5.3433,5.3441,5.3576,5.3459,5.3465,5.347,5.3473,5.3817,5.3821,0,0,0,0,0,0,5.3154,5.317,5.3344,5.3349,5.3217,5.3285,5.3295,5.334,5.3386,5.3388,5.3336,5.333,5.3422,5.3433,5.3444,5.3599,5.3467,5.3474,5.3478,5.3812,5.3818,5.3823,0,0,0,0,0,0,5.3149,5.317,5.334,5.3259,5.3279,5.3294,5.3345,5.3345,5.3374,5.3394,5.3396,5.3364,5.3419,5.3434,5.3536,5.3602,5.3477,5.3484,5.3807,5.3814,5.382,5.3912,0,0,0,0,0,0,5.3142,5.3169,5.3221,5.326,5.3283,5.3433,5.3349,5.3349,5.3387,5.3379,5.3421,5.3423,5.3417,5.3525,5.3544,5.361,5.349,5.3801,5.381,5.3818,5.3903,5.3921,5.3937,0,0,0,0,0,5.3134,5.3243,5.3224,5.3245,5.3349,5.3437,5.345,5.3442,5.3393,5.3444,5.3457,5.3422,5.3592,5.3537,5.3557,5.3626,5.3797,5.3807,5.3817,5.3896,5.3918,5.3936,0,0,0,0,0,0,5.321,5.3248,5.3227,5.3352,5.3392,5.3426,5.3491,5.3466,5.3519,5.3509,5.3495,5.3504,5.3611,5.3629,5.3567,5.3754,5.3686,5.3701,5.3739,5.376,5.3776,5.3769,5.3496,0,0,0,0,0,5.3241,5.3311,5.334,5.3447,5.3468,5.3476,5.3514,5.3504,5.3544,5.356,5.358,5.3619,5.368,5.3721,5.3779,5.3906,5.3912,5.3963,5.3979,5.3993,5.4006,5.407,5.4092,5.3856,5.3856,5.3856,0,0,5.3307,5.3336,5.3381,5.3463,5.3493,5.3563,5.3491,5.3569,5.362,5.3571,5.3669,5.3686,5.3727,5.3841,5.3893,5.3859,5.4072,5.4006,5.4017,5.4022,5.4083,5.4106,5.4125,5.3863,5.3862,5.3861,0,0,5.3461,5.3492,5.3583,5.3614,5.366,5.3664,5.3686,5.3724,5.3733,5.3831,5.3795,5.3855,5.3962,5.3992,5.4022,5.4185,5.4153,5.4204,5.4291,5.4354,5.4373,5.4389,5.4445,5.4465,5.4217,5.4217,5.4217,0,5.3536,5.3643,5.3633,5.3713,5.3749,5.3709,5.38,5.383,5.3892,5.3916,5.3878,5.401,5.4035,5.4154,5.4194,5.422,5.4242,5.4199,5.4371,5.4387,5.4402,5.4455,5.4476,5.4222,5.4222,5.4221,5.4221,0,5.3731,5.3805,5.3873,5.3934,5.3978,5.4063,5.4064,5.4108,5.4094,5.4101,5.42,5.4229,5.429,5.4318,5.4305,5.4435,5.4412,5.4373,5.4304,5.4431,5.448,5.45,5.4231,5.4229,5.4227,5.4225,0,0,5.3937,5.3991,5.4015,5.4041,5.4088,5.4144,5.4225,5.4287,5.4324,5.4368,5.4434,5.4524,5.4487,5.4521,5.451,5.4566,5.469,5.4519,5.452,5.4548,5.4831,5.4859,5.4883,5.467,5.4673,5.4676,5.4827,0,5.4092,5.4237,5.4229,5.4363,5.443,5.4391,5.4462,5.4496,5.4505,5.456,5.4568,5.4632,5.458,5.4599,5.4653,5.4664,5.4746,5.4653,5.4728,5.4731,5.4718,5.4909,5.494,5.5081,5.4846,5.485,5.4852,0,5.4293,5.4344,5.4485,5.4519,5.4546,5.461,5.4664,5.4719,5.4756,5.4758,5.4794,5.4773,5.4853,5.4783,5.489,5.4827,5.4857,5.4866,5.4871,5.4877,5.4798,5.4918,5.5126,5.5146,5.4883,5.488,5.4878,0,5.4426,5.453,5.4627,5.465,5.4693,5.4738,5.4758,5.4791,5.4827,5.4874,5.4896,5.4952,5.4981,5.5023,5.5016,5.4966,5.5124,5.5055,5.5126,5.5126,5.516,5.5158,5.5374,5.5183,5.5182,5.5182,5.5182,0,5.46,5.4687,5.4687,5.4746,5.4842,5.4831,5.4925,5.4939,5.4968,5.5027,5.4997,5.5053,5.5042,5.5097,5.5092,5.518,5.5194,5.5196,5.5193,5.5198,5.5197,5.5216,5.5206,5.5188,5.5186,5.5185,5.5184,0,5.4764,5.4768,5.4871,5.4902,5.4912,5.4981,5.5006,5.5061,5.5066,5.5142,5.5159,5.5166,5.5229,5.5227,5.5298,5.5295,5.5402,5.5389,5.539,5.5387,5.5457,5.545,5.5692,5.5722,5.5513,5.5515,5.5517,0,5.4874,5.494,5.4979,5.5017,5.504,5.5102,5.5139,5.5129,5.5168,5.5214,5.5263,5.5323,5.5371,5.5472,5.5483,5.5536,5.5523,5.5603,5.553,5.5532,5.5521,5.5517,5.5522,5.5617,5.562,5.5622,5.5623,0,5.5068,5.5066,5.5121,5.5177,5.5222,5.5265,5.5304,5.5336,5.5331,5.5376,5.544,5.5477,5.5549,5.5608,5.5659,5.5676,5.5648,5.5646,5.5665,5.567,5.5667,5.5667,5.5427,5.5641,5.5639,5.5638,5.5637,5.5636,5.5207,5.5263,5.5298,5.536,5.5388,5.5425,5.5477,5.5489,5.5543,5.5602,5.5592,5.5664,5.5695,5.5761,5.5783,5.5836,5.5807,5.5835,5.5842,5.5849,5.5856,5.566,5.5846,5.5845,5.5845,5.5844,5.5844,0,5.5397,5.5417,5.5474,5.553,5.5578,5.5549,5.559,5.5631,5.5695,5.5728,5.5775,5.5847,5.5904,5.5918,5.5971,5.6011,5.6,5.6026,5.6022,5.6025,5.588,5.5857,5.6034,5.6034,5.6034,5.6034,5.6034,5.6034,5.5502,5.5594,5.5596,5.57,5.5719,5.579,5.5815,5.5848,5.5874,5.5956,5.6004,5.6013,5.6037,5.6092,5.6141,5.6144,5.6164,5.6195,5.6192,5.6055,5.6036,5.6018,5.5996,5.62,5.62,5.6333,5.6334,5.6335]}]]